User: anonymous   Login
Location: Libas
(9.8833°N, 125.9833°E)
Time: 14:47:27
(UTC+00:00)
Language:

Cosmos 1953 - Orbit

View from above orbital plane
View from above orbital plane
View from above satellite
View from above satellite

Ground track
Ground track

The orbit data is extracted from the following two-line orbital elements,

1 19210U 88050A   21019.77861533  .00000827  00000-0  54395-4 0  9994
2 19210  82.5164 199.8211 0014204  98.7967 261.4869 15.06147865754228
Epoch (UTC): 19 January 2021 18:41:12
Eccentricity: 0.0014204
inclination: 82.5164°
perigee height: 538 km
apogee height: 558 km
right ascension of ascending node: 199.8211°
argument of perigee: 98.7967°
revolutions per day: 15.06147865
mean anomaly at epoch: 261.4869°
orbit number at epoch: 75422

The dashed part of the orbit path shows where the satellite is in the earth's shadow,  

DLR